{"data":{"norad_id":66367,"intl_designator":"2025-254V","name":"STARLINK-35846","alt_names":[],"object_type":"PAYLOAD","status":"ACTIVE","operator":null,"country":"US","launch_date":"2025-11-06","launch_site_code":"AFWTR","launch_vehicle":null,"mission":null,"orbit_class":"UNKNOWN","rcs_meters":null,"size_class":null,"mass_kg":null,"dimensions":null,"purposes":["comms"],"wikipedia_slug":null,"has_3d_model":false,"image_url":null,"decayed_at":null,"tle_current":{"epoch":"2026-05-24T17:39:51.448896Z","epoch_age_seconds":97940,"freshness":"FRESH","line1":"1 66367U 25254V   26144.73601214  .00009830  00000+0  34356-3 0  9990","line2":"2 66367  53.1593 238.8716 0001120  70.4551 289.6570 15.30201715 30620","mean_motion":15.30201715,"eccentricity":0.000112,"inclination_deg":53.1593,"raan_deg":238.8716,"arg_perigee_deg":70.4551,"mean_anomaly_deg":289.657,"bstar":0.00034356,"rev_number":3062,"period_min":94.105240236252,"perigee_km":474.44237388498,"apogee_km":475.9775236015,"semimajor_km":6853.3469487432,"source":"CELESTRAK","updated_at":"2026-05-25T13:38:21.178009Z"}}}